"Pseudo-MPEC" for P10OD4Y

Created 2019 Jun 18 16:07:33 UT using Find_Orb

Click here for an explanation of pseudo-MPECs

 
 Astrometry: 
     P10OD4Y  C2019 06 02k+TL=8-?gXuq3#:Z0iA-!4PO8,*S^O_l!*/uqgpBUMo-09(=:H:EF51
     P10OD4Y  C2019 06 02:!)m9XR+Z.ii*;VT]e'][hGtqehgg]3'^pNQO'6/i%xM@.\XN=o/F51
     P10OD4Y  C2019 06 02,=]W\%DIb1P($QW_g@)Gr0AZly.0oqpfTMH4Kqv]!w?%(P?JpHqhF51
     P10OD4Y  C2019 06 07X8%l1ia(_'7fOK7F!NGRm[CE+mGV5Zn8_`#N!+g(vSW!DWWsX/@_F51
     P10OD4Y  C2019 06 07D*O1,_GfT9%nSp!tRxMdSKA0D@e9d)wnn)S;Ia.N0J'ZL!2$(PWTF51
     P10OD4Y  C2019 06 07rBRLq?ZAstrometryNI\IwMx-wYgI[TM=*_KV'$\Cu!#P,yrB=AsF51
     P10OD4Y |C2019 06 08D?'ByHE4VsQa2W=m[Tj0UG`M-9EO1gIU`*Q_,wMcJY$\6u)qOs[_807
     P10OD4Y |C2019 06 08@v2Ni2WSZ09aSK^hb_lDOgMFq\VuXBIGTZa;2U3Mb8fBN\Ls1n2e807
     P10OD4Y |C2019 06 08UnuPL=SsL3ug(aB5*.!M5O/;tc#,N2#bLA;G(u4e7W[L;iMBXV+t807
     P10OD4Y KC2019 06 08Y]62fH3id_dY91aiFWaRrQY;/i]Hu89;:L^$eI]%4ynZ%tkAL935691
     P10OD4Y KC2019 06 08(3s+:HCSc8%GpjJTI_-=sfkeaq)3dImOvRiDOvag!b^F3lILSgEs691
     P10OD4Y KC2019 06 082d[*mnnc=;m9m67redacted;C3xdhaHhNn8GYyAkdO1JxOh9B[a2691
     P10OD4Y KC2019 06 09s^EqHh2K0`?H:g[:bM$5hTd0n`lUsemr6;:IfKc,s$M/i\v-8eOm291
     P10OD4Y KC2019 06 09*`;j,J=q=jaX*0yUN_)Rf8JUN@?kgI+(n7,ebIUJ\`4[obclickt291
     P10OD4Y KC2019 06 09xn`jrorr198V;c/Soups*@UjTj:qd8e$]^sU0^H:)VlMhered;Z4291
     P10OD4Y KC2019 06 11-TCQb3kYQ^EUA]NPm2Sp'\47(;Uwr52YCU0,Cet:dP5GXe;kreL.291
     P10OD4Y KC2019 06 11Sc6H?ht.TSR/d8,@#'4h1Iiih^4aI`oV$`%wNy+(-7kforKOxk-Y291
     P10OD4Y  C2019 06 11%Oj(3p#Wb']@g=;oIw:hMj@rQyexplanationQCYD1P!3a(Oh?p/F51
     P10OD4Y  C2019 06 11[3$P6!-+DZudSL^,;PLH,_/45R-_ahLfr=g%He:w*mIHQ/=I_jqEF51
     P10OD4Y  C2019 06 11)[3r3@WNb*:[!\:IGTFQ!IS-XqVq;(=xcPqPK($3fsHgUc6Vq6bsF51
     P10OD4Y  C2019 06 13.24104 16 30 31.17 -03 07 33.2    ~6D6b       VNEOCPI52
     P10OD4Y  C2019 06 13.24437 16 30 31.15 -03 07 38.6    ~6D6b       VNEOCPI52
     P10OD4Y  C2019 06 13.25104 16 30 31.21 -03 07 48.8    ~6D6b       VNEOCPI52

Station data:
(291) LPL/Spacewatch II  (N31.961669 W111.599905)  US/Arizona.  Observers J.
   V. Scotti, R. S. McMillan. 1.8-m f/2.7 reflector + CCD.
(691) Steward Observatory, Kitt Peak - Spacewatch  (N31.962174 W111.600327)
   US/Arizona.  Observer J. V. Scotti. 0.9-m f/3 reflector + CCD.
(807) Cerro Tololo Observatory, La Serena  (S30.169136 W70.805900)  Chile.
(F51) Pan-STARRS 1, Haleakala  (N20.707235 W156.255910)  US/Hawaii.
   Observers N. Primak, A. Schultz, S. Watters, J. Thiel, T. Goggia. Measurer
   PS1 Science Consortium. 1.8-m Ritchey-Chrétien + CCD.
(I52) Steward Observatory, Mt. Lemmon Station  (N32.442547 W110.788920)
   US/Arizona.  Observers T. A. Pruyne, B. M. Africano, E. J. Christensen, G.
   A. Farneth, D. C. Fuls, A. R. Gibbs, A. D. Grauer, H. Groeller, J. A.
   Johnson, R. A. Kowalski, S. M. Larson, G. J. Leonard, R. L. Seaman, F. C.
   Shelly. 1.0-m reflector + CCD.

Orbital elements:  P10OD4Y
   Perihelion 2019 Jul 24.240212 +/- 0.0153 TT =  5:45:54 (JD 2458688.740212)
Epoch 2019 Jun 13.0 TT = JDT 2458647.5   Earth MOID: 0.0982   AutoNEOCP
M 349.03843859 +/- 0.08             (J2000 ecliptic)
n   0.26579789 +/- 0.00224          Peri.  200.93260 +/- 0.042
a   2.39571429 +/- 0.0135           Node    98.80399 +/- 0.017
e   0.5393932 +/- 0.00255           Incl.    9.17403 +/- 0.028
P   3.71                   H 23.7   G  0.15   U  8.6  
q 1.10348225 +/- 0.000114    Q 3.68794633 +/- 0.0265
From 23 observations 2019 June 2-13; mean residual 0".37
Residuals in arcseconds: 
190602 F51  .01-  .08-    190608 807  .29+  .47-    190611 291  .24-  .25+    
190602 F51  .04+  .12+    190608 691  .28+  .12+    190611 F51  .43-  .07-    
190602 F51  .07+  .05+    190608 691  .10+  .14-    190611 F51  .39-  .09-    
190607 F51  1.0-  .73+    190608 691  .98+  .17-    190611 F51  .41-  .04-    
190607 F51  .01+  .08-    190609 291  .68-  .19+    190613 I52  .65+  .39-    
190607 F51  .14+  .10-    190609 291  .24+  .21+    190613 I52  .08+  .23-    
190608 807  .09+  .39-    190609 291  .07-  .55+    190613 I52  .44+  .70+    
190608 807  .20+  .42-    190611 291  .32-  .05-    

Ephemerides (geocentric):
Date (UTC) HH   RA              Dec         delta   r     elong  mag " sig PA
---- -- -- --  -------------   -----------  ------ ------ -----  --- ---- ---
2019 06 18 16  16 33 08.583   -06 09 27.78  .17981 1.1818 155.3 21.4 2.33  16
2019 06 18 17  16 33 10.217   -06 11 07.81  .17962 1.1816 155.3 21.3 2.36  15
2019 06 18 18  16 33 11.858   -06 12 48.10  .17944 1.1815 155.3 21.3 2.40  15
2019 06 18 19  16 33 13.507   -06 14 28.66  .17926 1.1813 155.3 21.3 2.43  15
2019 06 18 20  16 33 15.164   -06 16 09.48  .17908 1.1811 155.3 21.3 2.46  15
2019 06 18 21  16 33 16.827   -06 17 50.57  .17890 1.1809 155.3 21.3 2.50  15
2019 06 18 22  16 33 18.499   -06 19 31.93  .17871 1.1808 155.3 21.3 2.53  15
2019 06 18 23  16 33 20.178   -06 21 13.56  .17853 1.1806 155.3 21.3 2.56  15
2019 06 19 00  16 33 21.864   -06 22 55.45  .17835 1.1804 155.3 21.3 2.60  14
2019 06 19 01  16 33 23.558   -06 24 37.61  .17817 1.1803 155.3 21.3 2.63  14
2019 06 19 02  16 33 25.260   -06 26 20.04  .17799 1.1801 155.3 21.3 2.67  14
2019 06 19 03  16 33 26.969   -06 28 02.75  .17781 1.1799 155.3 21.3 2.70  14
2019 06 19 04  16 33 28.686   -06 29 45.72  .17763 1.1797 155.3 21.3 2.74  14
2019 06 19 05  16 33 30.411   -06 31 28.96  .17744 1.1796 155.3 21.3 2.78  14
2019 06 19 06  16 33 32.144   -06 33 12.47  .17726 1.1794 155.3 21.3 2.81  14
2019 06 19 07  16 33 33.884   -06 34 56.26  .17708 1.1792 155.3 21.3 2.85  13
2019 06 19 08  16 33 35.632   -06 36 40.31  .17690 1.1791 155.3 21.3 2.89  13
2019 06 19 09  16 33 37.388   -06 38 24.64  .17672 1.1789 155.3 21.3 2.93  13
2019 06 19 10  16 33 39.151   -06 40 09.24  .17654 1.1787 155.2 21.3 2.96  13
2019 06 19 11  16 33 40.923   -06 41 54.12  .17636 1.1785 155.2 21.3 3.00  13
2019 06 19 12  16 33 42.702   -06 43 39.27  .17618 1.1784 155.2 21.3 3.04  13
2019 06 19 13  16 33 44.489   -06 45 24.70  .17600 1.1782 155.2 21.3 3.08  13
2019 06 19 14  16 33 46.285   -06 47 10.40  .17582 1.1780 155.2 21.3 3.12  13
2019 06 19 15  16 33 48.088   -06 48 56.37  .17564 1.1779 155.2 21.3 3.16  12
2019 06 19 16  16 33 49.899   -06 50 42.63  .17546 1.1777 155.2 21.3 3.20  12
2019 06 19 17  16 33 51.718   -06 52 29.16  .17529 1.1775 155.2 21.3 3.24  12
2019 06 19 18  16 33 53.545   -06 54 15.96  .17511 1.1774 155.2 21.3 3.28  12
2019 06 19 19  16 33 55.381   -06 56 03.05  .17493 1.1772 155.2 21.3 3.33  12
2019 06 19 20  16 33 57.224   -06 57 50.41  .17475 1.1770 155.2 21.3 3.37  12
2019 06 19 21  16 33 59.076   -06 59 38.05  .17457 1.1768 155.2 21.3 3.41  12
2019 06 19 22  16 34 00.935   -07 01 25.97  .17439 1.1767 155.2 21.3 3.45  12
2019 06 19 23  16 34 02.803   -07 03 14.17  .17421 1.1765 155.2 21.3 3.50  11
2019 06 20 00  16 34 04.679   -07 05 02.66  .17404 1.1763 155.2 21.3 3.54  11
2019 06 20 01  16 34 06.564   -07 06 51.42  .17386 1.1762 155.2 21.3 3.58  11
2019 06 20 02  16 34 08.456   -07 08 40.46  .17368 1.1760 155.2 21.3 3.63  11
2019 06 20 03  16 34 10.357   -07 10 29.79  .17350 1.1758 155.2 21.3 3.67  11
2019 06 20 04  16 34 12.266   -07 12 19.40  .17333 1.1757 155.1 21.3 3.72  11
2019 06 20 05  16 34 14.184   -07 14 09.29  .17315 1.1755 155.1 21.3 3.77  11
2019 06 20 06  16 34 16.110   -07 15 59.46  .17297 1.1753 155.1 21.3 3.81  11
2019 06 20 07  16 34 18.044   -07 17 49.92  .17280 1.1752 155.1 21.3 3.86  11
2019 06 20 08  16 34 19.987   -07 19 40.67  .17262 1.1750 155.1 21.3 3.91  10
2019 06 20 09  16 34 21.938   -07 21 31.70  .17244 1.1748 155.1 21.3 3.95  10
2019 06 20 10  16 34 23.898   -07 23 23.01  .17227 1.1747 155.1 21.3 4.00  10
2019 06 20 11  16 34 25.866   -07 25 14.61  .17209 1.1745 155.1 21.3 4.05  10
2019 06 20 12  16 34 27.843   -07 27 06.50  .17191 1.1743 155.1 21.3 4.10  10
2019 06 20 13  16 34 29.828   -07 28 58.68  .17174 1.1742 155.1 21.2 4.15  10
2019 06 20 14  16 34 31.822   -07 30 51.14  .17156 1.1740 155.1 21.2 4.20  10
2019 06 20 15  16 34 33.825   -07 32 43.89  .17139 1.1738 155.1 21.2 4.25  10